Location: Albany
(42.6526°N, 73.7562°W)
Time: 20:28:42
(UTC+00:00)

GEOS 3 Rocket - Pass Details

Date: 19 November 2019
Orbit: 786 x 834 km, 115.0° (Epoch: 13 December)

Event Time Altitude Azimuth Distance (km) Brightness Sun altitude
Exits shadow 22:52:47 14° 36° (NE) 2,134 5.4 -15.3°
Maximum altitude 22:57:21 88° 308° (NW) 827 3.6 -16.1°
Drops below altitude 10° 23:02:38 10° 219° (SW) 2,423 6.8 -17.1°
Sets 23:04:56 0° 219° (SW) 3,357 7.6 -17.5°
